Regional Weather Roundup
Issued by NWS Sioux Falls, SD

Home | Current Version | Previous Version | Graphics & Text | Print | Product List | Glossary Off
Versions: 1 2 3 4 5 6 7 8 9 10 11 12 13 14 15 16 17 18 19 20 21 22 23 24 25 26 27 28 29 30 31 32 33 34 35 36 37 38 39 40 41 42 43 44 45 46 47 48 49 50

000
ASUS43 KFSD 241602
RWRFSD

WEATHER ROUNDUP FOR SE SOUTH DAKOTA/SW MINNESOTA/NW IOWA
NATIONAL WEATHER SERVICE SIOUX FALLS SD
1100 AM CDT THU MAY 24 2018

NOTE: "FAIR" INDICATES FEW OR NO CLOUDS BELOW 12,000 FEET WITH NO
SIGNIFICANT WEATHER AND OR OBSTRUCTIONS TO VISIBILITY.


SDZ038>040-050-052>070-241700-
SOUTHEAST SOUTH DAKOTA

CITY           SKY/WX    TMP DP  RH WIND       PRES   REMARKS
BROOKINGS      CLOUDY    76  64  66 S14       29.93F
CHAMBERLAIN    PTSUNNY   80  65  61 SW12G20   29.88F
HURON          MOSUNNY   77  61  57 S6        29.89F
MADISON        FAIR      73  72  94 S16G22    29.94R
MITCHELL       MOSUNNY   77  63  61 S8        29.89F
SIOUX FALLS    CLOUDY    76  66  71 S14       29.91F
WINNER         FAIR      75  61  61 SW16G24   29.90R
YANKTON        MOSUNNY   79  66  64 S17G25    29.92F
$$

MNZ071-072-080-081-089-090-097-098-241700-
SOUTHWEST MINNESOTA

CITY           SKY/WX    TMP DP  RH WIND       PRES   REMARKS
FAIRMONT       CLOUDY    79  67  66 S20       30.02F
JACKSON        CLOUDY    77  66  69 S16       30.02F
LUVERNE        CLOUDY    77  64  65 S16G26    29.93F
MARSHALL       MOSUNNY   79  68  69 S18       29.93S
MONTEVIDEO     CLOUDY    77  64  65 SW9G18    29.93R
PIPESTONE      CLOUDY    75  66  73 S13       29.95F
REDWOOD FALLS  MOSUNNY   79  69  71 S23G29    29.94F
TRACY          CLOUDY    78  69  73 S15G25    29.92F
WINDOM         MOSUNNY   79  57  47 S13G20    29.98F
WORTHINGTON    MOSUNNY   80  66  62 S18G25    29.99F
$$

IAZ001>003-012>014-020>022-031-032-NEZ013-014-SDZ071-241700-
NORTHWEST IOWA

CITY           SKY/WX    TMP DP  RH WIND       PRES   REMARKS
CHEROKEE       CLOUDY    78  69  73 S12       30.01F
DENISON        CLOUDY    77  66  69 S7G15     30.05F
ESTHERVILLE    MOSUNNY   77  67  71 S15       30.02F
ORANGE CITY    MOSUNNY   79  68  69 S13       29.99F
SHELDON        MOSUNNY   81  68  65 S16       29.97F
SIOUX CITY     CLOUDY    78  67  68 S10       29.98F
SPENCER        CLOUDY    80  66  62 S14       30.02F
STORM LAKE     CLOUDY    79  66  65 S12       30.04F
$$

ABBREVIATIONS USED IN REMARKS
   TC - TEMPERATURE IN CELSIUS
  WCI - WIND CHILL INDEX
   HX - HEAT INDEX
  VSB - VISIBILITY





USA.gov is the U.S. government's official web portal to all federal, state and local government web resources and services.